BADR-6

Last updated on Nov. 13, 2019, 4:20 a.m. UTC

1 33154U 08034B   19316.87098895  .00000159  00000-0  00000+0 0  9999
2 33154   0.0635  48.4473 0001369 191.8192 151.0487  1.00270409 41602
UTC
Height (km)
Latitude
Longitude
Inclination
Orbital Period
UTC large
Height (km)
Speed (km/s)
/
Latitude / Longitude
Inclination (degrees)
Orbital Period (minutes)
Azimuth
Elevation
Range (km)
Doppler Factor
iOS Compass Heading
iOS Angle

Next 30 passes for location: Hong Kong

Rise time Rise Azimuth (degrees) Set time Set Azimuth (degrees) Duration Max altitude (degrees)

No matching passes for this satellites